Location: Bayshore Village Mobile Home Park
(26.6945°N, 81.8642°W)
Time: 01:24:15
(UTC+00:00)

Okean 3 Rocket - Pass Details

Date: 17 June 2021
Orbit: 616 x 644 km, 82.5° (Epoch: 05 August)

Event Time Altitude Azimuth Distance (km) Brightness Sun altitude
Exits shadow 08:36:46 58° 280° (W) 722 3.6 -22.3°
Drops below altitude 10° 08:41:03 10° 356° (N) 1,982 6.6 -21.6°
Sets 08:43:18 0° 1° (N) 2,888 7.6 -21.3°
